sat.trackr.live / text

‹ back to catalog

IRIDE-MS1-EAGLET 2-14

NORAD 68447 · 2026-067AH

PAYLOAD ACTIVE UNKNOWN

§ Identity

Operator
Country
IT
Launch date
2026-03-30
Launch site
AFWTR
Launch vehicle
Mass (kg)
RCS (m²)

External: N2YO · Heavens-Above · Gunter

§ Orbital elements

Epoch: 2026-05-25T03:04:27.046848Z

Period
94.83 min
Inclination
97.4505°
Eccentricity
0.0003471
Mean motion
15.18571823 rev/d
Perigee alt
507.8 km
Apogee alt
512.5 km
Semi-major
6,888.3 km
B*
3.4019e-4
RAAN
103.9372°
Arg perigee
89.9588°
Mean anomaly
270.2044°
Rev number
844

§ Raw data

IRIDE-MS1-EAGLET 2-141 68447U 26067AH  26145.12809082  .00006966  00000+0  34019-3 0  99942 68447  97.4505 103.9372 0003471  89.9588 270.2044 15.18571823  8444

JSON: /api/v1/satellites/68447 · /tle

For live sub-satellite position, see the globe view (requires WebGL).

§ Visibility from observer

Set your observer location to see the next 7 days of passes ≥ 10°. The values pass through the URL so the page stays shareable.

No JS? Fill the form by hand. The geolocation button needs JavaScript.